Theta_e
304 303 302 302 302 302 302 305 307 315 325 325 325 325 325 325 324 323 323 322 323 326 329 330 333 327 330 336 336 334 330 333 333 331 333 333 335 331 335 334 333 331 329
303 302 302 301 302 302 303 303 305 308 314 323 325 325 325 325 324 324 323 323 323 321 328 329 333 333 329 332 335 337 332 330 329 327 329 328 330 325 328 332 330 328 325
302 301 301 302 303 304 304 304 306 311 311 322 323 324 324 324 324 324 324 324 322 324 324 329 330 332 333 330 331 338 336 333 334 333 329 325 324 324 325 326 325 324 323
301 301 301 302 302 304 306 308 313 315 318 320 319 321 322 323 324 324 323 324 323 323 324 324 328 329 331 332 328 333 336 335 335 334 330 329 328 327 325 324 324 324 322
301 301 301 302 302 305 305 308 309 310 316 317 318 319 320 321 322 321 320 321 322 322 323 323 324 326 328 330 331 328 334 336 334 334 332 329 327 324 325 324 323 321 319
300 299 300 301 302 305 303 303 306 310 317 316 317 317 318 318 319 320 320 320 320 322 322 322 323 324 326 327 331 330 331 334 335 334 330 330 328 326 324 322 321 321 322
298 298 298 298 300 302 305 302 304 305 312 313 315 315 316 316 317 318 319 319 320 320 321 321 320 322 322 324 328 331 331 333 335 334 330 329 328 327 325 322 320 321 321
298 297 297 297 298 299 300 300 301 302 304 307 308 312 314 315 315 314 316 318 319 319 320 319 320 321 321 322 325 328 332 333 335 333 330 329 329 326 325 321 320 320 320
297 297 297 297 297 297 297 297 299 299 300 300 301 305 311 312 312 313 314 315 316 318 318 319 319 319 320 321 323 325 332 333 332 331 329 329 328 326 323 320 319 319 318
297 297 296 296 296 296 296 296 296 297 298 299 299 300 303 308 309 312 313 313 314 316 317 318 319 319 320 322 323 325 329 333 333 331 327 329 327 324 322 321 319 319 318
296 296 295 295 295 296 295 296 296 296 296 297 297 298 299 302 307 309 310 311 313 314 315 316 317 317 319 322 322 326 325 334 332 329 326 327 324 323 325 322 318 318 317
295 295 295 295 295 295 295 295 295 295 295 296 296 296 297 299 301 304 307 309 310 312 314 314 315 317 319 320 322 323 324 325 330 328 325 324 323 319 324 321 318 315 315
295 294 294 294 294 294 294 294 295 295 295 295 295 295 296 297 298 300 303 307 309 309 312 314 314 315 316 317 319 321 323 323 323 324 323 322 322 320 323 320 317 315 315
294 294 294 294 294 294 294 295 295 295 295 295 295 295 295 296 296 298 300 303 306 308 309 311 312 312 314 315 317 319 321 323 321 321 320 320 321 322 323 319 317 317 315
293 294 294 294 294 294 294 294 294 294 294 294 294 294 294 295 295 296 297 299 302 305 307 309 310 311 312 313 315 316 319 317 321 321 320 318 319 321 322 319 319 315 314
293 293 293 293 293 294 294 294 294 293 293 294 294 295 293 293 294 294 295 299 300 302 305 306 308 309 309 311 313 314 316 317 317 317 318 320 320 322 322 320 319 316 314
293 293 293 293 293 293 293 293 293 293 293 294 294 294 293 292 293 293 294 298 300 301 302 304 306 307 308 309 310 312 314 314 316 315 316 315 316 319 322 321 320 317 316
292 293 293 292 292 292 292 292 292 292 293 292 292 292 290 289 289 291 292 294 297 299 301 302 304 305 306 307 309 310 311 312 313 314 314 316 314 316 321 320 319 318 313
292 292 292 292 292 292 292 292 291 291 291 290 290 289 289 289 288 288 291 292 296 297 298 300 302 303 305 306 307 308 309 310 311 312 312 313 311 312 318 318 320 314 314
292 291 292 291 291 291 291 291 291 291 291 291 290 289 288 288 288 287 288 291 293 295 293 298 299 302 303 303 306 306 307 308 309 310 310 310 310 314 315 317 316 316 316
293 291 291 291 291 291 291 291 290 290 290 291 291 290 289 288 287 287 287 288 292 294 293 293 296 298 301 301 303 304 305 306 306 307 307 308 308 309 310 314 313 314 314
292 291 291 291 291 291 290 290 290 289 290 290 289 288 288 288 287 287 286 286 288 292 294 294 293 295 297 300 301 303 304 304 304 305 306 305 307 307 308 309 309 310 311
291 291 291 291 290 290 290 289 288 288 288 288 287 287 287 286 287 286 286 286 286 287 291 293 293 293 295 297 299 301 302 301 301 301 302 303 304 305 305 304 306 307 308
291 290 290 290 290 290 289 288 288 287 287 286 286 286 286 286 286 286 286 286 286 286 286 290 293 293 293 294 297 300 301 301 300 300 300 300 300 301 301 302 303 304 305
291 290 290 289 289 289 288 287 287 287 286 286 286 286 286 286 286 286 286 286 286 286 286 286 290 291 293 293 293 296 299 300 300 299 300 300 300 300 300 300 300 301 302
290 290 289 289 289 288 288 287 287 286 286 285 285 285 285 285 285 285 286 286 286 286 285 285 286 289 290 292 293 294 295 296 298 299 299 300 300 300 300 300 299 300 300
Wind_Speed
33 32 31 29 27 25 23 22 21 20 21 24 24 25 25 25 25 26 25 24 24 16 11 17 20 22 21 20 19 17 19 20 18 18 17 17 17 14 14 13 12 10 9
27 30 30 28 25 23 23 22 23 22 22 23 24 23 24 24 23 24 25 23 22 24 15 14 20 18 24 23 19 20 20 22 22 21 20 20 20 16 15 15 14 13 11
27 27 26 26 27 26 24 24 24 23 21 23 24 23 22 23 24 24 25 25 23 21 24 16 16 18 17 25 23 21 21 23 20 18 16 16 17 16 16 16 14 13 12
22 23 25 24 24 24 24 24 25 24 23 22 23 24 24 23 23 22 23 24 23 22 22 22 20 19 21 23 27 22 22 24 24 20 18 17 17 17 17 16 16 15 14
22 24 25 26 26 26 25 23 25 25 26 24 22 25 26 26 26 24 23 24 25 22 21 21 22 21 20 22 27 28 24 27 29 24 20 19 17 15 16 17 15 16 13
21 24 26 25 24 24 25 24 24 25 26 25 21 21 24 26 27 26 24 23 23 22 22 21 19 21 22 21 22 31 29 30 32 26 20 18 17 16 13 14 15 12 13
23 25 25 26 25 24 28 27 24 22 26 24 24 22 22 23 27 27 25 23 21 22 23 25 22 21 20 20 20 25 34 33 37 30 26 24 21 20 15 13 14 15 15
22 24 25 26 25 24 26 26 22 24 24 27 28 25 25 24 26 29 27 25 23 22 23 24 25 24 22 20 20 24 36 36 44 33 30 28 28 23 17 16 14 16 14
22 24 25 27 28 28 30 27 24 27 27 28 29 29 26 27 28 29 28 27 26 24 23 24 25 26 24 20 20 23 28 34 46 35 30 33 27 23 19 14 17 17 18
21 24 26 27 28 29 31 31 32 31 30 29 29 28 29 26 26 28 30 28 28 26 24 25 25 25 23 19 20 17 21 34 40 37 34 34 27 23 17 18 19 17 16
22 24 26 27 28 30 30 31 32 33 34 35 35 34 31 31 30 27 26 28 26 26 24 24 25 24 21 19 20 18 20 32 40 30 33 32 25 19 22 23 18 18 17
23 25 26 26 27 28 29 29 30 33 35 37 38 38 36 33 31 31 28 26 26 26 25 22 23 22 19 18 18 14 12 19 43 35 31 30 21 18 27 22 15 12 17
20 21 23 24 24 26 28 30 32 33 34 36 37 38 38 38 37 34 31 29 26 26 28 24 20 20 19 19 13 6 3 5 21 33 24 21 20 20 26 19 11 10 18
18 19 20 22 22 23 24 27 30 32 35 37 37 37 39 39 38 38 36 32 28 24 26 25 21 19 15 15 15 10 5 7 8 17 22 17 21 23 25 17 9 17 15
16 17 19 19 20 20 22 24 26 29 31 33 35 36 36 37 38 39 39 37 30 26 23 25 22 19 15 11 11 10 6 5 16 22 23 19 18 21 24 17 12 12 10
14 15 17 17 18 19 21 23 26 28 29 31 32 32 33 34 36 37 38 37 33 31 27 20 22 20 16 12 10 9 8 10 1 7 17 25 27 23 25 18 19 18 10
13 14 16 17 17 18 20 21 22 23 26 30 31 31 32 33 33 35 36 36 33 29 27 21 17 19 17 13 11 9 7 11 3 6 11 18 20 16 22 19 23 16 16
10 13 15 16 17 18 20 21 22 22 23 26 28 30 31 31 32 33 35 35 34 30 28 24 18 17 17 15 12 13 10 11 10 11 8 12 19 17 19 21 25 21 15
9 12 14 17 17 18 20 22 22 21 21 25 26 27 28 30 32 32 34 35 34 33 33 26 21 16 15 16 14 13 12 12 12 12 5 6 20 17 9 20 27 22 20
10 12 13 15 16 18 20 21 22 22 22 23 26 27 27 29 30 32 32 34 35 33 35 32 24 17 11 18 15 14 11 7 6 17 19 15 11 15 12 18 25 24 22
10 12 13 15 17 18 21 24 25 25 23 23 24 26 27 27 28 30 30 31 32 32 32 35 35 26 16 19 15 12 9 8 9 9 9 7 13 17 10 9 17 22 18
11 10 11 15 16 17 19 21 23 22 21 20 21 22 24 25 26 28 29 30 29 31 31 30 35 40 27 15 17 9 5 8 8 10 13 14 12 10 6 7 9 17 17
9 8 10 13 14 16 18 20 21 20 21 23 24 24 24 24 24 25 27 28 29 28 30 28 29 34 37 23 12 6 4 4 11 6 9 10 13 15 15 13 10 9 11
5 6 9 11 13 14 17 19 21 23 24 23 23 23 23 24 25 24 25 26 28 28 27 27 25 28 32 37 24 9 5 11 4 5 3 6 8 14 18 16 16 16 14
5 6 8 10 12 13 16 20 20 20 20 19 20 21 22 23 25 26 25 25 26 28 27 27 24 24 25 32 34 21 10 7 9 8 7 9 10 8 9 11 11 15 20
5 6 7 9 11 13 16 19 19 20 20 21 21 22 23 24 24 25 26 24 24 26 27 27 26 23 23 26 29 27 16 10 11 7 5 6 9 11 9 10 11 10 15
Wind_Direction
340 339 345 352 355 353 351 349 350 351 356 357 355 353 359 355 357 358 354 357 355 326 303 289 288 270 265 266 260 247 244 238 239 236 233 228 226 215 210 208 212 228 223
334 341 350 355 358 358 354 353 354 354 356 353 355 349 351 351 347 348 351 353 356 348 323 299 281 292 266 265 267 248 245 244 239 238 238 234 231 232 212 218 223 232 242
346 351 355 0 1 2 3 3 2 356 357 353 355 349 347 348 345 343 342 340 348 347 334 314 304 289 289 265 263 255 244 242 233 227 230 224 226 222 212 220 226 231 237
359 5 8 8 7 8 12 9 5 5 2 2 354 347 346 344 344 345 338 333 336 336 336 327 310 303 290 272 256 255 246 240 229 225 224 222 221 223 220 219 222 232 240
19 20 21 20 15 15 15 13 7 6 3 359 359 353 349 347 348 344 339 337 337 329 329 330 323 320 295 289 263 251 248 240 233 221 225 227 225 232 220 215 218 228 229
30 28 28 27 22 22 19 19 13 12 11 5 358 354 349 344 342 349 341 341 336 335 330 328 329 319 306 303 285 249 247 241 234 228 211 218 228 235 222 204 205 188 176
33 29 27 25 27 26 17 21 13 10 4 4 357 348 348 347 341 339 347 341 339 336 332 330 321 312 303 309 303 271 241 239 234 223 199 212 218 234 226 215 203 185 189
31 26 25 26 24 20 20 14 9 9 3 357 353 353 351 352 344 341 344 345 344 336 328 326 329 320 306 302 293 297 242 235 231 219 199 210 219 231 226 216 194 186 183
32 27 23 21 22 19 16 8 11 12 9 3 359 355 352 353 351 350 349 347 349 341 336 328 326 322 315 307 300 308 250 235 236 205 201 212 218 222 225 202 183 189 192
32 27 23 23 24 21 16 12 14 16 13 9 5 1 357 348 346 351 352 347 347 343 341 339 333 327 319 315 313 315 273 227 232 199 197 211 213 212 198 187 189 191 192
30 28 27 27 27 22 18 17 16 15 14 11 9 6 357 355 356 350 344 342 340 342 340 341 340 336 336 326 320 314 323 215 212 223 198 210 199 197 180 190 195 192 197
28 28 28 27 25 24 20 20 19 19 17 14 10 9 8 1 351 349 345 345 343 334 336 338 338 337 337 337 324 319 325 196 210 203 188 186 181 180 186 190 199 196 195
28 30 29 27 25 26 21 25 21 20 15 11 7 4 4 6 3 355 347 348 352 335 331 338 336 340 344 340 322 343 3 125 156 179 183 182 176 180 191 189 212 202 199
29 31 31 29 23 27 24 22 18 15 9 7 6 5 4 5 4 3 358 347 345 352 338 335 338 338 343 334 326 302 154 165 115 158 166 163 165 181 189 179 213 176 187
28 29 28 25 25 24 21 16 12 9 6 1 0 1 1 1 2 2 360 357 345 341 346 341 334 334 337 328 322 304 241 95 190 177 188 180 173 189 193 191 185 177 208
22 24 23 22 20 17 15 12 8 8 6 3 0 360 359 358 358 358 359 357 357 349 341 344 332 329 334 327 327 297 266 271 91 188 198 184 184 187 192 194 185 176 167
18 10 15 17 14 13 15 11 8 10 3 4 5 5 2 359 358 356 359 359 0 354 340 340 334 322 327 322 316 306 256 272 258 235 154 190 198 226 190 193 187 178 163
10 6 3 10 10 14 12 14 12 11 9 7 7 7 7 4 2 1 2 4 2 6 350 338 341 331 325 329 330 293 289 258 252 254 225 195 207 225 202 188 186 175 151
359 355 357 3 9 10 10 11 14 13 8 3 2 5 5 5 7 5 3 6 2 8 8 349 342 342 340 329 324 317 310 271 260 250 231 201 202 217 190 210 171 158 158
348 346 352 358 3 8 4 8 11 9 6 0 0 2 2 3 5 7 6 4 9 5 17 9 352 348 334 340 327 325 302 306 298 258 263 267 253 203 191 164 156 161 165
333 340 348 352 5 2 5 3 5 5 0 357 357 354 356 359 2 6 8 7 6 8 11 15 14 5 356 355 331 329 318 304 300 291 275 288 280 262 256 185 156 174 163
320 335 345 352 359 360 1 3 2 1 0 359 360 359 357 358 2 5 9 11 9 8 6 13 12 13 3 8 340 320 327 329 305 283 280 273 272 275 270 238 209 188 179
308 337 339 349 355 354 357 355 359 358 0 1 5 4 3 4 4 6 9 11 13 14 13 13 10 14 9 3 359 319 338 336 327 320 282 273 273 266 271 257 255 223 216
308 322 333 346 350 351 353 357 1 359 356 359 358 360 2 3 6 6 9 11 12 15 16 15 13 13 12 17 3 354 277 303 304 318 334 308 291 272 266 260 259 259 248
294 322 329 344 345 350 352 353 356 355 353 355 357 356 359 2 7 10 8 9 11 12 16 16 17 15 9 11 7 3 15 313 303 274 285 305 313 309 282 272 261 264 260
275 302 326 340 346 347 345 347 351 351 349 352 355 356 358 359 4 9 10 8 10 11 12 16 17 16 21 6 10 12 359 351 331 312 292 289 302 300 303 273 252 240 243